Weather History for KRCZ - September, 2013

Change the Weather History Date:

Tuesday, September 17, 2013

  Actual Average (KFAY) Record (KFAY)
Temperature  
Mean Temperature 71 °F 74 °F  
Max Temperature 79 °F 83 °F 102 °F (1931)
Min Temperature 63 °F 64 °F 47 °F (1966)
Degree Days  
Heating Degree Days 0 0  
Month to date heating degree days 0  
Since 1 July heating degree days 0  
Cooling Degree Days 6 9  
Month to date cooling degree days 182  
Year to date cooling degree days 1822  
Growing Degree Days 21 (Base 50)    
Moisture  
Dew Point 54 °F    
Average Humidity 57    
Maximum Humidity 74    
Minimum Humidity 32    
Precipitation  
Precipitation 0.00 in 0.15 in 2.47 in (1924)
Month to date precipitation 2.54  
Year to date precipitation 33.97  
Sea Level Pressure  
Sea Level Pressure 30.24 in    
Wind  
Wind Speed 7 mph (NE)    
Max Wind Speed 12 mph    
Max Gust Speed 18 mph    
Visibility 10 miles    
Events      
T = Trace of Precipitation, MM = Missing Value Source: NWS Daily Summary

Daily Weather History Graph

Daily Weather History Graph

Search for Another Location

Airport or City:

Trip Planner

Search our weather history database for the weather conditions in past years. The results will help you decide how hot, cold, wet, or windy it might be!

Date:

Astronomy

Sep. 17, 2013 Rise Set
Actual Time 7:03 AM EDT 7:22 PM EDT
Civil Twilight 6:38 AM EDT 7:47 PM EDT
Nautical Twilight 6:08 AM EDT 8:17 PM EDT
Astronomical Twilight 5:38 AM EDT 8:47 PM EDT
Moon 6:06 PM EDT (9/17) 4:59 AM EDT (9/17)
Length of Visible Light 13h 09m
Length of Day
12h 19m
Waxing Gibbous, 96% of the Moon is Illuminated
Sep 17
Waxing Gibbous
Sep 19
Full
Sep 26
Last Quarter
Oct 4
New
Oct 11
First Quarter

Hourly Weather History & Observations

Time (EDT) Temp. Dew Point Humidity Pressure Visibility Wind Dir Wind Speed Gust Speed Precip Events Conditions
12:15 AM 74.3 °F 61.0 °F 63% 30.15 in 10.0 mi NE 5.8 mph - N/A   Unknown
12:35 AM 74.3 °F 60.8 °F 63% 30.16 in 10.0 mi NE 6.9 mph - N/A   Unknown
12:55 AM 74.3 °F 60.4 °F 62% 30.16 in 10.0 mi NE 6.9 mph - N/A   Unknown
1:15 AM 73.8 °F 60.4 °F 63% 30.16 in 10.0 mi NE 6.9 mph - N/A   Unknown
1:35 AM 73.0 °F 61.2 °F 66% 30.17 in 10.0 mi ENE 6.9 mph 18.4 mph N/A   Unknown
1:55 AM 72.3 °F 61.5 °F 69% 30.17 in 10.0 mi NE 8.1 mph - N/A   Unknown
2:15 AM 71.6 °F 61.2 °F 70% 30.17 in 10.0 mi NE 9.2 mph - N/A   Unknown
2:35 AM 71.2 °F 61.0 °F 70% 30.18 in 10.0 mi ENE 10.4 mph 16.1 mph N/A   Unknown
2:55 AM 70.9 °F 61.0 °F 71% 30.18 in 10.0 mi NE 4.6 mph - N/A   Unknown
3:15 AM 70.7 °F 61.2 °F 72% 30.19 in 10.0 mi NE 6.9 mph - N/A   Unknown
3:35 AM 70.3 °F 58.3 °F 66% 30.19 in 10.0 mi NE 9.2 mph 17.3 mph N/A   Unknown
3:55 AM 69.8 °F 57.2 °F 64% 30.19 in 10.0 mi NE 9.2 mph - N/A   Unknown
4:15 AM 69.1 °F 57.2 °F 66% 30.19 in 10.0 mi NE 8.1 mph - N/A   Unknown
4:35 AM 68.5 °F 57.2 °F 67% 30.20 in 10.0 mi NE 11.5 mph - N/A   Unknown
4:55 AM 68.0 °F 57.4 °F 69% 30.20 in 10.0 mi NE 6.9 mph - N/A   Unknown
5:15 AM 67.8 °F 57.6 °F 70% 30.20 in 10.0 mi NNE 6.9 mph - N/A   Unknown
5:35 AM 67.6 °F 57.6 °F 70% 30.21 in 10.0 mi NE 4.6 mph - N/A   Unknown
5:55 AM 67.3 °F 58.1 °F 72% 30.21 in 10.0 mi NE 9.2 mph - N/A   Unknown
6:15 AM 67.1 °F 58.3 °F 73% 30.22 in 10.0 mi NNE 5.8 mph - N/A   Unknown
6:35 AM 66.7 °F 58.1 °F 74% 30.23 in 10.0 mi NE 8.1 mph - N/A   Unknown
6:55 AM 66.6 °F 57.9 °F 74% 30.23 in 10.0 mi NE 9.2 mph - N/A   Unknown
7:15 AM 66.4 °F 56.7 °F 71% 30.24 in 10.0 mi NE 8.1 mph 16.1 mph N/A   Unknown
7:35 AM 66.2 °F 56.5 °F 71% 30.25 in 10.0 mi NNE 6.9 mph - N/A   Unknown
7:55 AM 66.2 °F 56.5 °F 71% 30.26 in 10.0 mi NE 4.6 mph - N/A   Unknown
8:15 AM 66.4 °F 57.2 °F 72% 30.26 in 10.0 mi NNE 5.8 mph - N/A   Unknown
8:35 AM 66.4 °F 56.8 °F 71% 30.27 in 10.0 mi NE 9.2 mph - N/A   Unknown
8:55 AM 66.7 °F 56.8 °F 70% 30.27 in 10.0 mi NE 6.9 mph - N/A   Unknown
9:15 AM 67.3 °F 57.0 °F 70% 30.28 in 10.0 mi NE 9.2 mph - N/A   Unknown
9:35 AM 68.7 °F 57.0 °F 66% 30.28 in 10.0 mi ENE 11.5 mph 16.1 mph N/A   Unknown
9:55 AM 69.8 °F 56.7 °F 63% 30.29 in 10.0 mi ENE 10.4 mph 16.1 mph N/A   Unknown
10:15 AM 71.4 °F 56.3 °F 59% 30.29 in 10.0 mi NE 10.4 mph 16.1 mph N/A   Unknown
10:35 AM 70.7 °F 55.4 °F 58% 30.29 in 10.0 mi NE 6.9 mph - N/A   Unknown
10:55 AM 71.2 °F 54.5 °F 55% 30.30 in 10.0 mi NE 6.9 mph - N/A   Unknown
11:15 AM 72.5 °F 54.9 °F 54% 30.30 in 10.0 mi East 6.9 mph - N/A   Unknown
11:35 AM 73.2 °F 54.5 °F 52% 30.30 in 10.0 mi NE 10.4 mph 16.1 mph N/A   Unknown
11:55 AM 73.8 °F 54.0 °F 50% 30.29 in 10.0 mi ENE 8.1 mph - N/A   Unknown
12:15 PM 77.5 °F 53.8 °F 44% 30.29 in 10.0 mi ENE 6.9 mph 16.1 mph N/A   Unknown
12:35 PM 78.1 °F 52.3 °F 41% 30.29 in 10.0 mi NE 8.1 mph - N/A   Unknown
12:55 PM 79.3 °F 51.6 °F 38% 30.28 in - NNE 11.5 mph - N/A   Unknown
1:15 PM - - N/A% 30.28 in - ENE 10.4 mph - N/A   Unknown
1:35 PM 79.5 °F 51.6 °F 38% 30.27 in 10.0 mi NE 8.1 mph - N/A   Unknown
1:55 PM 78.3 °F 51.6 °F 39% 30.26 in 10.0 mi North 4.6 mph 16.1 mph N/A   Unknown
2:15 PM 78.4 °F 51.3 °F 39% 30.25 in 10.0 mi NE 9.2 mph - N/A   Unknown
2:35 PM 79.2 °F 50.2 °F 36% 30.25 in 10.0 mi NE 10.4 mph - N/A   Unknown
2:55 PM 79.9 °F 49.5 °F 34% 30.24 in 10.0 mi ENE 9.2 mph - N/A   Unknown
3:15 PM 79.0 °F 48.7 °F 35% 30.23 in 10.0 mi NE 5.8 mph - N/A   Unknown
3:35 PM 79.7 °F 49.5 °F 35% 30.23 in 10.0 mi NNE 10.4 mph - N/A   Unknown
3:55 PM 79.5 °F 48.4 °F 33% 30.22 in 10.0 mi NE 5.8 mph - N/A   Unknown
4:15 PM 79.5 °F 48.0 °F 33% 30.22 in 10.0 mi East 4.6 mph - N/A   Unknown
4:35 PM 79.0 °F 47.1 °F 32% 30.22 in 10.0 mi ENE 6.9 mph - N/A   Unknown
4:55 PM 78.8 °F 46.8 °F 32% 30.22 in 10.0 mi NE 9.2 mph - N/A   Unknown
5:15 PM 78.8 °F 47.5 °F 33% 30.22 in 10.0 mi NE 8.1 mph - N/A   Unknown
5:35 PM 78.3 °F 47.8 °F 34% 30.22 in 10.0 mi NNE 6.9 mph - N/A   Unknown
5:55 PM 77.7 °F 48.6 °F 36% 30.22 in 10.0 mi ENE 6.9 mph - N/A   Unknown
6:15 PM 76.1 °F 49.1 °F 39% 30.22 in 10.0 mi ENE 8.1 mph - N/A   Unknown
6:35 PM 75.2 °F 49.3 °F 40% 30.22 in 10.0 mi ENE 5.8 mph - N/A   Unknown
6:55 PM 73.8 °F 50.2 °F 43% 30.22 in 10.0 mi ENE 5.8 mph - N/A   Unknown
7:15 PM 72.5 °F 50.5 °F 46% 30.22 in 10.0 mi ENE 4.6 mph - N/A   Unknown
7:35 PM 71.1 °F 51.1 °F 49% 30.22 in 10.0 mi Calm Calm - N/A   Unknown
7:55 PM 70.0 °F 51.3 °F 51% 30.23 in 10.0 mi Calm Calm - N/A   Unknown
8:15 PM 69.1 °F 51.4 °F 53% 30.23 in 10.0 mi ENE 3.5 mph - N/A   Unknown
8:35 PM 68.0 °F 51.8 °F 56% 30.24 in 10.0 mi Calm Calm - N/A   Unknown
8:55 PM 67.1 °F 52.0 °F 58% 30.24 in 10.0 mi Calm Calm - N/A   Unknown
9:15 PM 66.4 °F 52.0 °F 60% 30.25 in 10.0 mi NE 3.5 mph - N/A   Unknown
9:35 PM 65.8 °F 52.3 °F 62% 30.25 in 10.0 mi Calm Calm - N/A   Unknown
9:55 PM 65.3 °F 52.3 °F 63% 30.26 in 10.0 mi Calm Calm - N/A   Unknown
10:15 PM 64.4 °F 52.7 °F 66% 30.26 in 10.0 mi NE 3.5 mph - N/A   Unknown
10:35 PM 64.4 °F 52.7 °F 66% 30.26 in 10.0 mi NE 4.6 mph - N/A   Unknown
10:55 PM 64.2 °F 52.7 °F 66% 30.26 in 10.0 mi ENE 4.6 mph - N/A   Unknown
11:15 PM 64.0 °F 52.7 °F 67% 30.27 in 10.0 mi ENE 4.6 mph - N/A   Unknown
11:35 PM 63.9 °F 52.9 °F 67% 30.27 in 10.0 mi ENE 4.6 mph - N/A   Unknown
11:55 PM 64.0 °F 53.2 °F 68% 30.27 in 10.0 mi ENE 5.8 mph - N/A   Unknown